Wind_Speed
13 13 13 11 9 7 6 6 6 9 10 11 9 10 10 10 10 9 9 9 8 8 8 8 8 9 9 10 10 10 10 10 11 11 12 12 12 12 12 12 12 13 12 12 12 12 12 13 13
15 14 13 13 10 8 6 6 9 13 12 12 12 11 11 11 11 11 11 11 10 10 10 10 10 11 11 12 11 11 11 11 12 13 13 13 13 14 14 14 14 14 14 14 14 14 14 14 14
15 14 14 12 10 9 7 8 11 13 13 13 14 12 12 12 12 12 12 13 12 12 12 12 13 13 13 13 13 13 13 13 14 14 15 15 15 15 15 15 15 15 15 15 15 15 15 15 15
15 14 14 12 11 10 12 12 13 14 14 14 14 14 14 13 14 13 13 14 14 14 14 14 14 14 14 14 14 15 15 16 16 16 16 16 16 16 16 16 17 17 17 17 17 17 16 16 16
16 15 13 11 11 11 13 13 14 15 15 15 15 15 15 14 14 14 14 15 15 15 15 14 14 15 15 16 16 16 16 17 17 17 17 17 18 18 18 18 18 18 18 18 18 18 18 17 17
16 15 13 12 11 11 13 14 14 16 17 15 16 15 16 15 14 15 16 16 16 15 15 15 15 16 16 16 17 17 17 17 18 19 19 19 19 19 19 19 19 20 20 20 20 19 19 19 18
15 15 13 11 11 13 15 15 15 16 18 16 15 16 16 15 16 16 16 16 16 16 16 16 16 16 17 17 17 18 18 19 19 20 20 20 20 20 21 21 21 21 20 21 21 21 20 20 20
14 13 13 12 11 13 16 15 15 16 18 18 17 16 16 16 16 16 15 16 16 16 16 17 16 18 18 18 18 19 19 19 20 21 21 22 22 22 22 22 22 22 21 21 21 21 21 21 21
13 13 12 11 11 14 15 17 18 19 19 18 17 17 16 16 16 16 16 16 16 16 17 17 17 18 19 18 19 20 21 21 21 22 23 23 23 23 23 23 23 23 22 22 22 22 22 22 21
11 11 11 12 14 14 16 18 18 19 18 17 17 17 17 17 16 15 15 16 17 17 18 18 19 20 20 19 20 21 22 22 23 23 24 24 24 25 24 24 24 24 23 23 23 23 23 23 23
11 11 10 12 13 14 15 16 16 17 16 16 17 17 18 18 17 16 15 16 18 18 19 20 20 21 21 20 21 22 22 23 24 25 25 25 26 26 25 25 24 24 24 24 24 24 24 24 24
11 11 11 12 13 15 16 17 15 15 16 16 16 16 17 16 16 16 16 17 18 19 20 20 21 22 22 22 22 23 23 23 25 25 26 26 26 26 26 25 25 25 26 27 26 25 25 26 25
11 10 11 11 12 15 15 13 13 15 16 16 15 14 17 16 16 16 17 17 18 19 20 21 22 22 23 24 24 25 25 25 25 25 26 26 27 27 27 27 27 27 27 27 27 28 27 26 26
8 10 11 11 10 12 12 12 11 13 14 15 15 14 15 16 16 18 19 19 19 19 20 21 22 23 24 25 25 26 26 26 26 27 26 26 27 28 29 29 28 28 28 28 28 28 27 26 26
5 6 7 9 10 11 13 12 11 13 14 14 15 14 16 17 17 17 18 19 20 21 21 21 22 23 23 24 25 26 27 27 28 28 28 27 28 29 30 30 30 29 28 28 27 27 27 27 26
3 4 7 8 10 12 13 13 13 13 14 15 14 15 16 18 18 17 18 19 20 22 22 22 23 24 24 25 25 26 27 28 29 29 28 28 29 30 30 30 29 28 27 27 27 27 27 28 27
4 7 9 9 10 12 13 13 14 13 13 13 14 15 16 18 18 18 18 19 20 22 23 23 24 24 25 26 27 27 28 28 28 28 29 29 30 30 30 29 28 28 28 27 27 27 28 29 29
6 9 10 11 11 12 14 14 16 14 15 14 14 16 18 18 19 19 19 20 20 22 23 25 25 26 26 26 27 28 28 29 29 28 28 28 29 30 30 29 29 29 28 28 29 29 29 30 30
7 10 11 12 11 12 14 15 15 15 15 16 16 16 18 19 19 20 20 21 21 22 23 25 26 26 26 27 26 27 28 28 28 28 28 29 29 30 30 29 29 29 29 29 29 29 29 29 29
9 11 11 11 11 13 15 15 15 16 17 17 16 16 19 20 20 22 22 21 22 22 24 25 25 26 26 26 26 27 27 27 28 28 28 29 30 29 29 29 29 29 28 28 29 29 28 28 28
10 11 11 11 11 13 14 14 14 14 16 19 18 18 17 19 20 21 22 22 23 23 24 25 25 26 26 26 26 27 27 28 28 29 29 30 29 28 28 29 29 29 28 29 28 27 28 28 28
11 10 10 10 11 12 12 15 14 15 16 19 19 19 18 19 19 21 22 23 23 23 24 24 25 25 25 26 27 27 27 28 28 29 29 29 28 29 29 29 28 28 28 28 28 27 27 27 27
10 9 9 10 10 12 12 14 15 17 18 20 20 19 18 20 21 21 21 22 22 23 24 25 24 23 24 25 26 26 26 27 28 28 28 28 28 28 28 28 28 28 28 28 27 27 27 27 27
10 10 10 10 10 14 13 13 16 18 20 22 24 20 18 20 20 20 20 22 23 23 23 23 22 23 24 25 25 25 26 27 28 28 27 27 27 28 27 28 28 28 27 27 26 26 27 27 26
11 12 12 12 13 15 13 14 20 20 21 24 23 20 20 18 19 20 22 24 24 23 23 23 24 24 24 24 24 25 25 26 26 27 27 27 27 27 27 27 27 26 25 25 25 25 25 25 25
11 11 11 13 14 15 14 16 20 20 23 23 22 22 21 21 20 20 21 22 23 23 23 24 23 23 23 24 24 24 25 25 26 26 26 27 26 25 25 25 25 24 24 23 23 24 24 24 24
11 11 12 14 15 15 14 17 20 21 22 24 23 21 20 21 21 21 22 22 23 23 23 24 23 24 24 24 24 24 25 25 26 25 25 25 25 24 24 24 25 24 24 24 24 25 24 24 24
12 13 13 13 15 16 15 16 21 23 24 25 24 22 21 21 21 20 21 22 23 24 24 24 24 24 24 25 24 24 25 25 24 24 23 24 24 23 23 24 24 23 24 24 24 24 24 24 24
13 14 15 16 16 16 18 18 21 24 24 24 24 24 23 23 24 22 23 23 24 24 24 24 24 24 24 24 24 24 24 24 23 23 23 23 23 23 22 22 22 22 23 23 23 24 24 23 23
15 15 16 17 17 17 19 19 21 24 23 23 23 24 24 23 22 23 24 24 24 24 24 23 24 24 24 24 24 23 23 23 23 22 22 22 22 21 21 21 22 21 22 22 22 22 22 22 22
Wind_Direction
222 222 220 216 213 206 204 227 246 254 252 255 256 259 261 267 276 281 288 288 284 274 273 274 281 282 282 284 285 286 287 287 287 287 287 287 289 290 290 290 290 290 289 289 290 291 291 290 289
221 222 222 219 215 209 208 234 244 252 254 258 261 261 263 270 275 280 282 283 281 276 278 277 280 283 283 286 286 287 288 289 289 289 289 290 290 291 291 290 290 289 290 290 290 291 292 290 288
219 219 220 219 217 215 226 235 239 256 256 256 257 259 264 270 274 278 279 278 278 276 275 278 281 284 284 286 286 285 284 287 289 290 292 293 292 292 292 291 291 291 291 290 291 293 292 290 288
217 216 217 220 220 222 230 233 239 245 252 254 258 263 268 273 278 280 280 279 279 277 277 279 281 283 283 284 285 286 287 287 289 290 292 293 294 293 292 292 293 293 292 292 291 291 290 289 287
213 214 217 224 228 230 239 240 239 247 253 255 261 266 271 275 278 279 279 280 281 280 277 278 279 281 283 286 287 287 289 290 291 293 294 295 294 294 293 294 293 292 292 291 291 290 288 288 286
216 211 215 230 234 239 245 248 251 248 257 256 260 265 267 272 276 278 280 281 281 281 281 281 280 283 285 287 288 288 290 292 293 294 295 295 295 295 295 296 294 293 292 291 290 289 288 287 285
217 211 214 228 239 243 246 249 250 253 257 261 265 265 267 269 272 276 280 282 282 283 286 288 285 287 287 286 288 290 291 292 293 293 294 295 295 296 297 296 294 292 291 291 290 288 287 286 285
213 210 218 226 235 246 254 252 256 255 257 260 264 267 270 268 272 277 279 287 288 288 289 290 288 290 290 289 290 291 291 292 293 292 293 294 295 295 296 297 294 292 292 292 290 288 287 286 286
208 212 220 226 234 244 252 255 257 261 259 260 267 268 268 271 272 279 280 285 288 290 292 295 295 295 295 294 293 292 292 293 294 293 292 294 294 293 293 294 294 292 291 291 290 289 288 288 286
210 218 226 231 234 242 250 253 254 258 263 262 262 269 272 273 274 277 280 284 285 288 292 295 298 296 295 295 294 295 294 293 293 293 293 294 295 296 294 294 293 292 292 293 293 292 290 287 287
220 231 224 224 233 241 249 251 251 256 260 260 263 265 273 274 271 276 281 285 287 289 292 295 296 296 295 295 295 296 296 295 296 296 296 297 296 297 297 297 296 295 294 294 293 294 292 290 289
225 227 229 230 236 243 247 250 253 258 259 257 259 263 272 275 276 280 282 287 286 288 293 295 296 298 297 295 296 297 297 298 299 298 297 299 298 297 298 299 299 297 294 294 293 293 293 291 290
221 231 234 238 249 254 255 262 264 259 255 259 259 262 268 276 278 283 288 291 292 293 294 299 299 301 301 300 300 299 298 299 300 300 300 298 298 298 298 299 296 297 297 295 294 294 293 292 291
213 226 235 234 252 257 262 261 264 264 262 267 265 263 273 280 282 285 289 292 293 296 297 300 302 303 302 301 302 301 300 298 299 299 299 299 298 298 299 297 294 294 295 295 294 293 294 293 292
218 241 257 256 259 260 266 269 271 269 268 272 275 271 278 284 284 284 287 290 293 295 297 297 298 299 301 302 303 303 303 300 300 298 298 299 298 297 298 297 296 294 293 295 295 294 294 293 292
259 266 273 272 270 268 271 275 275 272 271 272 278 278 279 281 284 285 286 288 292 292 295 297 298 297 299 300 302 303 305 304 302 299 299 300 299 298 298 297 296 295 294 293 295 294 293 293 292
288 271 272 274 263 261 271 275 273 272 278 279 282 281 281 282 284 286 287 289 293 294 296 298 300 298 297 299 302 302 303 304 304 303 301 300 300 299 298 299 297 297 295 294 294 294 293 293 292
257 260 260 259 263 268 269 271 274 276 278 277 281 284 288 290 288 288 291 293 294 294 296 297 299 299 299 300 302 302 302 303 305 304 303 303 301 300 298 297 297 296 294 293 293 293 293 292 292
262 263 262 262 265 270 272 270 275 279 277 280 282 282 285 287 290 290 292 294 293 294 296 297 299 300 301 303 303 302 302 303 303 303 304 302 302 302 298 297 297 296 294 292 292 292 291 291 292
274 271 261 262 262 270 275 275 274 276 283 283 280 283 292 291 291 289 291 294 295 296 297 296 297 299 300 300 300 301 301 302 303 302 304 305 304 303 300 302 300 299 297 292 291 292 292 292 293
267 266 267 267 274 275 278 280 279 278 285 291 287 286 292 292 292 291 294 296 297 296 297 297 295 299 300 300 300 303 302 303 302 304 305 305 305 304 302 303 304 303 300 296 294 294 294 294 294
272 272 272 276 280 281 282 284 286 286 288 291 289 290 292 290 292 293 295 299 297 296 297 298 298 299 300 302 301 303 304 305 306 306 305 306 305 304 303 303 303 303 300 297 295 295 295 295 294
281 277 279 283 285 281 284 280 282 285 286 290 292 291 289 288 288 291 296 300 301 300 301 301 299 301 303 304 305 305 306 306 308 308 307 307 306 305 304 303 303 302 301 298 295 294 294 294 294
288 290 292 287 279 274 278 284 282 282 288 292 295 292 291 292 295 297 301 303 301 299 299 301 301 302 304 305 305 306 307 307 308 309 309 308 308 306 305 305 304 302 301 299 296 294 294 295 295
291 293 289 279 278 277 276 280 278 280 286 292 294 292 298 295 296 299 299 301 300 298 298 300 301 302 303 305 305 304 308 309 308 308 309 310 308 307 307 307 305 304 302 301 299 297 297 297 296
292 292 294 285 282 281 277 277 280 284 289 292 293 294 295 298 300 296 298 300 300 299 298 300 301 304 306 307 307 306 308 310 308 308 310 311 309 307 308 308 307 306 304 303 302 301 300 299 299
291 288 289 286 283 279 276 280 279 280 285 287 289 293 295 296 296 298 298 299 300 301 299 300 300 303 305 306 304 303 306 308 309 310 311 312 311 308 308 309 310 308 306 304 304 305 302 302 301
292 287 288 282 282 285 280 278 278 286 290 288 291 293 293 292 296 297 295 296 299 299 300 301 301 301 303 303 302 302 303 306 308 310 311 313 313 313 310 312 312 311 310 308 307 306 304 303 302
287 284 286 285 282 282 285 283 282 286 288 290 290 291 294 296 298 297 295 296 296 296 296 299 299 298 301 303 304 302 302 305 308 309 309 310 313 316 315 314 314 315 315 313 310 309 307 304 303
285 290 291 290 287 284 282 285 286 286 288 289 290 292 295 298 300 299 298 297 295 296 297 297 300 302 302 303 304 304 303 305 307 309 309 309 311 313 317 318 317 316 316 317 317 317 314 309 307
Height
5880 5881 5883 5885 5888 5889 5892 5894 5894 5894 5893 5892 5892 5893 5893 5894 5894 5896 5894 5892 5893 5893 5892 5892 5892 5892 5891 5891 5890 5890 5889 5889 5888 5888 5887 5886 5886 5885 5884 5883 5882 5881 5880 5879 5879 5878 5877 5876 5875
5877 5879 5882 5884 5886 5888 5891 5893 5893 5892 5891 5891 5891 5892 5893 5893 5893 5893 5892 5892 5892 5892 5892 5891 5891 5891 5890 5890 5889 5889 5888 5887 5886 5886 5885 5884 5883 5882 5881 5881 5880 5879 5878 5877 5876 5875 5874 5873 5873
5874 5877 5880 5882 5884 5888 5890 5891 5891 5890 5889 5890 5890 5891 5892 5891 5891 5891 5891 5891 5891 5890 5890 5890 5890 5889 5889 5888 5887 5887 5886 5885 5884 5883 5883 5882 5881 5880 5879 5878 5877 5876 5875 5874 5873 5872 5871 5871 5870
5872 5875 5878 5882 5884 5886 5887 5888 5888 5887 5887 5888 5889 5890 5890 5890 5889 5889 5889 5889 5889 5889 5888 5888 5887 5887 5887 5886 5885 5884 5884 5883 5882 5881 5880 5879 5878 5877 5876 5875 5874 5873 5872 5871 5870 5869 5868 5867 5867
5870 5873 5876 5880 5882 5884 5884 5885 5885 5885 5885 5886 5887 5887 5887 5888 5887 5887 5887 5887 5887 5887 5886 5885 5885 5884 5884 5883 5883 5882 5881 5880 5879 5878 5877 5876 5875 5874 5873 5872 5871 5870 5869 5868 5867 5866 5865 5864 5863
5868 5871 5875 5877 5880 5881 5882 5883 5883 5883 5883 5882 5884 5885 5885 5885 5885 5885 5884 5884 5884 5884 5884 5883 5882 5881 5881 5880 5880 5879 5878 5878 5877 5875 5874 5873 5872 5871 5870 5868 5867 5866 5865 5864 5863 5862 5861 5860 5860
5867 5869 5872 5876 5878 5880 5880 5880 5882 5881 5881 5881 5881 5882 5881 5882 5882 5882 5882 5881 5881 5881 5881 5880 5879 5879 5878 5877 5877 5876 5875 5874 5873 5872 5871 5870 5868 5867 5866 5865 5863 5862 5861 5860 5859 5858 5857 5857 5856
5864 5867 5870 5873 5877 5878 5878 5878 5878 5877 5879 5879 5878 5879 5879 5879 5879 5879 5879 5879 5878 5878 5877 5877 5877 5876 5875 5874 5873 5873 5872 5871 5870 5868 5867 5866 5864 5863 5862 5860 5859 5858 5857 5856 5855 5854 5853 5852 5851
5862 5866 5868 5870 5874 5876 5876 5876 5876 5876 5876 5876 5875 5876 5877 5875 5876 5877 5876 5876 5876 5875 5875 5874 5874 5873 5872 5871 5870 5869 5868 5867 5866 5864 5863 5861 5860 5859 5858 5856 5855 5854 5852 5851 5851 5850 5849 5848 5847
5861 5864 5867 5869 5871 5872 5872 5873 5873 5873 5873 5873 5873 5874 5873 5873 5874 5874 5873 5873 5873 5872 5872 5871 5870 5869 5868 5867 5866 5865 5864 5863 5862 5860 5858 5857 5855 5854 5853 5852 5850 5849 5848 5847 5846 5844 5844 5843 5842
5859 5862 5862 5865 5868 5869 5869 5868 5869 5871 5871 5870 5870 5871 5871 5870 5871 5871 5871 5871 5870 5869 5869 5868 5867 5866 5864 5863 5862 5861 5860 5859 5857 5856 5854 5852 5851 5850 5848 5847 5846 5844 5843 5842 5840 5839 5838 5837 5837
5858 5859 5860 5863 5865 5865 5865 5865 5866 5867 5867 5868 5867 5868 5868 5867 5867 5868 5868 5868 5867 5866 5866 5863 5863 5862 5861 5860 5858 5857 5856 5854 5853 5851 5850 5848 5847 5845 5844 5842 5841 5839 5838 5837 5835 5834 5833 5831 5830
5857 5858 5860 5862 5862 5862 5863 5862 5864 5863 5864 5864 5864 5865 5865 5864 5865 5865 5865 5864 5863 5863 5861 5860 5859 5858 5857 5856 5854 5853 5851 5850 5848 5846 5845 5843 5842 5840 5839 5837 5835 5834 5832 5831 5829 5828 5826 5825 5824
5856 5858 5859 5860 5861 5861 5862 5862 5862 5861 5862 5862 5862 5862 5862 5862 5862 5863 5862 5861 5860 5860 5859 5857 5856 5855 5853 5851 5850 5848 5846 5845 5843 5842 5840 5838 5836 5835 5833 5832 5829 5828 5826 5824 5823 5821 5820 5818 5817
5855 5857 5858 5859 5860 5860 5861 5861 5860 5860 5860 5860 5859 5859 5859 5859 5859 5859 5859 5858 5857 5856 5855 5854 5852 5851 5849 5847 5846 5844 5841 5840 5839 5837 5835 5833 5831 5829 5828 5826 5824 5822 5820 5818 5816 5815 5813 5812 5811
5855 5856 5858 5859 5859 5859 5861 5859 5859 5858 5858 5857 5858 5858 5857 5856 5855 5855 5855 5854 5854 5852 5851 5850 5848 5846 5845 5843 5841 5839 5837 5835 5833 5831 5829 5827 5825 5823 5822 5820 5818 5816 5814 5812 5810 5809 5807 5805 5803
5855 5857 5857 5859 5859 5858 5858 5857 5857 5855 5855 5854 5855 5855 5855 5853 5852 5852 5851 5850 5850 5849 5847 5846 5844 5842 5840 5839 5837 5835 5832 5830 5828 5826 5824 5822 5820 5818 5816 5814 5812 5810 5808 5806 5804 5803 5800 5798 5796
5855 5856 5856 5857 5857 5856 5855 5855 5854 5853 5853 5852 5852 5852 5852 5851 5850 5848 5847 5846 5846 5844 5842 5841 5840 5838 5836 5833 5831 5829 5827 5825 5823 5821 5818 5816 5814 5812 5809 5808 5806 5804 5802 5800 5798 5796 5794 5791 5789
5854 5854 5854 5855 5854 5854 5853 5853 5853 5852 5851 5849 5849 5849 5848 5847 5846 5845 5843 5843 5841 5840 5838 5837 5835 5833 5831 5828 5826 5825 5822 5820 5818 5815 5813 5810 5808 5805 5803 5801 5800 5797 5795 5793 5791 5789 5787 5784 5782
5853 5853 5853 5852 5852 5852 5851 5850 5850 5848 5848 5846 5845 5844 5845 5844 5842 5841 5839 5838 5836 5835 5834 5832 5830 5828 5826 5824 5822 5820 5817 5815 5812 5809 5806 5804 5802 5800 5797 5795 5793 5791 5789 5786 5784 5782 5779 5777 5775
5851 5851 5851 5850 5849 5850 5849 5847 5846 5845 5844 5843 5842 5840 5840 5839 5838 5836 5835 5834 5832 5830 5829 5827 5825 5823 5821 5819 5817 5815 5812 5809 5807 5804 5801 5799 5796 5794 5792 5789 5787 5784 5782 5780 5777 5775 5773 5770 5768
5848 5849 5848 5847 5847 5847 5848 5846 5844 5841 5840 5839 5838 5836 5836 5835 5834 5832 5831 5829 5827 5825 5824 5821 5820 5818 5817 5814 5812 5810 5807 5804 5802 5799 5796 5793 5791 5788 5786 5783 5781 5778 5776 5773 5771 5769 5766 5764 5761
5847 5846 5846 5845 5844 5845 5846 5844 5843 5839 5838 5837 5835 5833 5831 5830 5828 5826 5826 5824 5822 5821 5819 5817 5815 5813 5811 5809 5807 5805 5802 5799 5796 5793 5790 5787 5785 5782 5780 5777 5774 5772 5769 5767 5764 5762 5759 5757 5754
5844 5844 5843 5842 5843 5843 5843 5842 5840 5836 5835 5833 5832 5829 5827 5825 5824 5823 5821 5820 5818 5816 5814 5812 5810 5809 5807 5804 5802 5800 5797 5794 5791 5788 5785 5782 5779 5776 5774 5771 5768 5766 5763 5760 5758 5755 5753 5750 5748
5843 5842 5841 5840 5839 5839 5840 5838 5835 5832 5831 5829 5827 5826 5822 5822 5821 5820 5818 5816 5814 5812 5810 5808 5806 5804 5802 5800 5797 5794 5791 5789 5786 5783 5780 5777 5774 5771 5768 5765 5762 5760 5757 5754 5752 5749 5746 5744 5741
5840 5839 5839 5838 5837 5837 5836 5834 5833 5829 5827 5825 5823 5822 5819 5818 5817 5816 5814 5812 5809 5807 5805 5804 5802 5800 5798 5795 5792 5790 5787 5784 5782 5779 5775 5772 5768 5765 5763 5760 5757 5754 5752 5749 5746 5743 5740 5738 5735
5837 5836 5836 5835 5833 5833 5833 5831 5828 5825 5823 5822 5819 5818 5817 5815 5814 5812 5810 5808 5805 5803 5801 5799 5798 5796 5793 5791 5788 5786 5783 5780 5777 5774 5771 5767 5763 5760 5758 5756 5753 5750 5747 5743 5740 5737 5734 5731 5728
5835 5833 5832 5831 5830 5828 5828 5827 5823 5819 5819 5817 5815 5814 5812 5810 5809 5807 5805 5804 5802 5799 5797 5795 5793 5791 5789 5786 5784 5781 5779 5776 5773 5770 5766 5763 5759 5756 5753 5751 5748 5745 5742 5738 5735 5732 5728 5725 5722
5830 5829 5827 5826 5825 5824 5822 5823 5818 5815 5814 5812 5810 5808 5807 5805 5804 5803 5801 5799 5797 5795 5792 5790 5788 5786 5784 5782 5779 5776 5774 5771 5769 5765 5762 5759 5756 5752 5750 5747 5744 5740 5737 5733 5730 5726 5722 5719 5717
5826 5825 5824 5822 5821 5819 5818 5818 5813 5810 5809 5807 5805 5803 5802 5801 5799 5797 5795 5793 5792 5789 5787 5785 5782 5780 5778 5776 5774 5772 5769 5767 5764 5761 5758 5754 5751 5748 5745 5743 5740 5736 5733 5729 5725 5721 5718 5715 5712